STARLINK-2464 (48123 NORAD) Tracking and Keplerian Element Data

This shows tracking and keplerian element data for the satellite.

Feedback or suggestion? Click here.




ElementValue
Catalog48123
NameSTARLINK-2464
Epoch Orbit198
Epoch Day173.91668981
Epoch Year2021
RAAN321.6965
Inclination53.046
Eccentricity0.0004279
Argument of Perigee358.7246
Mean Anonmoly19.2528
Mean Motion15.65714535
Decay Rate-0.01090475
L11 48123U 21027AH 21173.91668981 -.01090475 00000-0 -11834-1 0 9998
L22 48123 53.0460 321.6965 0004279 358.7246 19.2528 15.65714535 1984

Live tracking and technical data element details for STARLINK-2464 (NORAD 48123). STARLINK-2464 can be tracked NOW for your location showing map with azimuth and elevation plus other details from your city location.

Track the satellite on the map from your city or location and see movement details for azimuth, elevation, latitude, longitude, range, height, and movement on the map or in text.







IsCatalogInMostPopularTable: catalog: 48123, numindb: 32
Update: records affected: 1



GetName: 48123 STARLINK-2464

Hit Count: updated at: Thu, 24 Jun 2021 03:11:20 GMT